Location: Bathsheba
(13.2167°N, 59.5167°W)
Time: 23:52:22
(UTC+00:00)

Cosmos 1300 Rocket - Pass Details

Date: 18 September 2020
Orbit: 602 x 626 km, 82.5° (Epoch: 20 October)

Event Time Altitude Azimuth Distance (km) Brightness Sun altitude
Rises 22:58:08 0° 176° (S) 2,858 6.9 -15.8°
Reaches altitude 10° 23:00:22 10° 173° (S) 1,958 6.0 -16.3°
Maximum altitude 23:04:38 59° 93° (E) 707 3.5 -17.3°
Drops below altitude 10° 23:08:56 10° 14° (NNE) 1,975 6.1 -18.4°
Sets 23:11:11 0° 10° (N) 2,884 7.0 -18.9°
